Weather in Saint-Pierre

Reunion     21°20′34″S   55°28′05″E
temp.,
°C
wind,
m/s
gust,
m/s
humid.,
%
clouds,
%
prec.,
mm/h
press.,
hPa
HPBL,
m
21 january, fri
fri2101:00+22nnw228797 0.2 1010110
04:00+21n22837 0.8 101096
07:00+22nne128311 0.1 1011151
10:00+25ssw1276100 0.2 1011592
13:00+25ssw127399 1.2 1011763
16:00+26wsw026999 1.6 1011732
19:00+24nnw137770 0.0 1012338
22:00+23n238417 0.1 1014208
22 january, sat
sat2201:00+22nne348377 0.1 1013187
04:00+22nne348313 0.1 1012166
07:00+23nne34818 0.0 1013179
10:00+26n1361100 0.1 1013595
13:00+27w136413 0.0 1012888
16:00+26wsw237040 0.1 1011774
19:00+24n137513 0.1 1012397
22:00+23ne237912 0.1 1015166
23 january, sun
sun2301:00+22nne348088 0.0 1014141
04:00+22nne337974 0.0 1013160
07:00+22nne237740 0.0 1014197
10:00+26sw12629 0.0 1014762
13:00+26s326972 0.1 1013875
16:00+26sse436727 0.4 1012919
19:00+24ese4576100 0.3 1013426
22:00+23ese3479100 0.4 1015336
24 january, mon
mon2401:00+22ese348314 0.1 1014233
04:00+21ese348385 0.1 1013192
07:00+21ese348399 0.1 1014301
10:00+24se4474100 0.2 1014745
13:00+23ese4479100 1.4 1013483
16:00+22se5583100 4.2 1013609
19:00+21ese568790 2.7 1014458
22:00+21ese5690100 3.4 1015430
25 january, tue
tue2501:00+21ese458999 1.4 1014307
04:00+21ese469093 2.9 1013310
07:00+21e348794 1.5 1015294
10:00+23e3478100 2.9 1014637
13:00+23e237995 2.1 1013420
16:00+23e227781 5.5 1013475
19:00+21e2285100 1.6 1014293
22:00+21ne1286100 2.4 1015180